When you browse on this site, cookies collect data to enhance your experience and personalize the content and advertising you see.
Visit our Privacy Policy to learn more. By continuing to use the site, you agree to this use of cookies and data.

Hourly Weather San Miguel de Tucumán

Today, 10 July, Friday

Time Temperature Precipitation Wind Pressure Humidity
00:00 +10°C° 0 mm 1 mps 717 mmHg 65%
01:00 +10°C° 0 mm 1 mps 716 mmHg 65%
02:00 +10°C° 0 mm 1 mps 715 mmHg 65%
03:00 +10°C° 0 mm 1 mps 715 mmHg 65%
04:00 +10°C° 0 mm 1 mps 714 mmHg 64%
05:00 +9°C° 0 mm 1 mps 713 mmHg 64%
06:00 +10°C° 0 mm 1 mps 714 mmHg 63%
07:00 +10°C° 0 mm 1 mps 714 mmHg 62%
08:00 +10°C° 0 mm 1 mps 714 mmHg 61%
09:00 +13°C° 0 mm 1 mps 714 mmHg 53%
10:00 +16°C° 0 mm 1 mps 715 mmHg 44%
11:00 +19°C° 0 mm 2 mps 715 mmHg 36%
12:00 +21°C° 0 mm 2 mps 715 mmHg 32%
13:00 +23°C° 0 mm 2 mps 714 mmHg 29%
14:00 +25°C° 0 mm 2 mps 714 mmHg 26%
15:00 +24°C° 0 mm 2 mps 714 mmHg 29%
16:00 +23°C° 0 mm 1 mps 714 mmHg 32%
17:00 +22°C° 0 mm 1 mps 714 mmHg 36%
18:00 +20°C° 0 mm 1 mps 715 mmHg 39%
19:00 +18°C° 0 mm 1 mps 716 mmHg 42%
20:00 +15°C° 0 mm 1 mps 716 mmHg 46%
21:00 +14°C° 0 mm 1 mps 717 mmHg 48%
22:00 +14°C° 0 mm 1 mps 718 mmHg 51%
23:00 +13°C° 0 mm 2 mps 718 mmHg 54%

Tomorrow, 11 July, Saturday

Time Temperature Precipitation Wind Pressure Humidity
00:00 +13°C° 0 mm 2 mps 718 mmHg 58%
01:00 +12°C° 0 mm 2 mps 719 mmHg 62%
02:00 +12°C° 0 mm 2 mps 719 mmHg 66%
03:00 +12°C° 0 mm 1 mps 719 mmHg 68%
04:00 +11°C° 0 mm 1 mps 719 mmHg 70%
05:00 +10°C° 0 mm 1 mps 719 mmHg 72%
06:00 +11°C° 0 mm 1 mps 719 mmHg 71%
07:00 +10°C° 0 mm 0 mps 719 mmHg 69%
08:00 +11°C° 0 mm 0 mps 719 mmHg 68%
09:00 +14°C° 0 mm 1 mps 719 mmHg 64%
10:00 +15°C° 0 mm 1 mps 719 mmHg 60%
11:00 +17°C° 0 mm 2 mps 719 mmHg 56%
12:00 +18°C° 0 mm 2 mps 718 mmHg 54%
13:00 +18°C° 0 mm 2 mps 717 mmHg 52%
14:00 +19°C° 0 mm 2 mps 716 mmHg 51%
15:00 +19°C° 0 mm 2 mps 716 mmHg 53%
16:00 +18°C° 0 mm 2 mps 716 mmHg 56%
17:00 +18°C° 0 mm 2 mps 716 mmHg 59%
18:00 +16°C° 0 mm 1 mps 716 mmHg 67%
19:00 +14°C° 0 mm 1 mps 716 mmHg 75%
20:00 +12°C° 0 mm 1 mps 717 mmHg 83%
21:00 +12°C° 0 mm 1 mps 717 mmHg 83%
22:00 +12°C° 0 mm 1 mps 717 mmHg 83%
23:00 +12°C° 0 mm 1 mps 717 mmHg 83%

Day after tomorrow, 12 July, Sunday

Time Temperature Precipitation Wind Pressure Humidity
00:00 +11°C° 0 mm 1 mps 717 mmHg 82%
01:00 +11°C° 0 mm 1 mps 717 mmHg 81%
02:00 +11°C° 0 mm 1 mps 716 mmHg 80%
03:00 +11°C° 0 mm 1 mps 716 mmHg 79%
04:00 +11°C° 0 mm 1 mps 716 mmHg 78%
05:00 +10°C° 0 mm 0 mps 716 mmHg 78%
06:00 +10°C° 0 mm 0 mps 716 mmHg 76%
07:00 +10°C° 0 mm 0 mps 717 mmHg 75%
08:00 +11°C° 0 mm 0 mps 718 mmHg 74%
09:00 +14°C° 0 mm 0 mps 718 mmHg 66%
10:00 +18°C° 0 mm 1 mps 719 mmHg 58%
11:00 +21°C° 0 mm 1 mps 719 mmHg 50%
12:00 +22°C° 0 mm 1 mps 718 mmHg 47%
13:00 +23°C° 0 mm 1 mps 718 mmHg 45%
14:00 +24°C° 0 mm 1 mps 717 mmHg 43%
15:00 +23°C° 0 mm 1 mps 717 mmHg 46%
16:00 +23°C° 0 mm 1 mps 717 mmHg 50%
17:00 +22°C° 0 mm 1 mps 717 mmHg 53%
18:00 +20°C° 0 mm 1 mps 718 mmHg 60%
19:00 +18°C° 0 mm 1 mps 718 mmHg 67%
20:00 +15°C° 0 mm 1 mps 719 mmHg 74%
21:00 +15°C° 0 mm 1 mps 719 mmHg 76%
22:00 +14°C° 0 mm 0 mps 720 mmHg 78%
23:00 +13°C° 0 mm 0 mps 720 mmHg 81%

13 July, Monday

Time Temperature Precipitation Wind Pressure Humidity
00:00 +13°C° 0 mm 0 mps 720 mmHg 82%
01:00 +13°C° 0 mm 1 mps 721 mmHg 83%
02:00 +13°C° 0 mm 1 mps 721 mmHg 83%
03:00 +13°C° 0 mm 1 mps 721 mmHg 83%
04:00 +13°C° 0 mm 1 mps 722 mmHg 82%
05:00 +14°C° 0 mm 2 mps 722 mmHg 81%
06:00 +13°C° 0.3 mm 2 mps 723 mmHg 85%
07:00 +13°C° 0.3 mm 2 mps 724 mmHg 89%
08:00 +13°C° 0.3 mm 2 mps 724 mmHg 92%
09:00 +12°C° 0.2 mm 2 mps 725 mmHg 90%
10:00 +12°C° 0.2 mm 2 mps 725 mmHg 87%
11:00 +10°C° 0.2 mm 2 mps 726 mmHg 85%
12:00 +10°C° 0 mm 2 mps 726 mmHg 80%
13:00 +12°C° 0 mm 2 mps 725 mmHg 76%
14:00 +12°C° 0 mm 2 mps 725 mmHg 72%
15:00 +12°C° 0 mm 1 mps 725 mmHg 70%
16:00 +11°C° 0 mm 1 mps 725 mmHg 68%
17:00 +11°C° 0 mm 1 mps 726 mmHg 67%
18:00 +11°C° 0 mm 1 mps 726 mmHg 68%
19:00 +11°C° 0 mm 1 mps 726 mmHg 70%
20:00 +10°C° 0 mm 0 mps 727 mmHg 72%
21:00 +9°C° 0 mm 0 mps 727 mmHg 72%
22:00 +9°C° 0 mm 0 mps 727 mmHg 72%
23:00 +9°C° 0 mm 0 mps 727 mmHg 72%

14 July, Tuesday

Time Temperature Precipitation Wind Pressure Humidity
00:00 +10°C° 0 mm 1 mps 726 mmHg 72%
01:00 +10°C° 0 mm 1 mps 726 mmHg 72%
02:00 +10°C° 0 mm 1 mps 726 mmHg 72%
03:00 +9°C° 0 mm 1 mps 725 mmHg 75%
04:00 +8°C° 0 mm 0 mps 725 mmHg 77%
05:00 +7°C° 0 mm 0 mps 725 mmHg 79%
06:00 +7°C° 0 mm 0 mps 725 mmHg 77%
07:00 +9°C° 0 mm 1 mps 725 mmHg 76%
08:00 +9°C° 0 mm 1 mps 725 mmHg 74%
09:00 +11°C° 0 mm 1 mps 725 mmHg 66%
10:00 +13°C° 0 mm 1 mps 725 mmHg 57%
11:00 +16°C° 0 mm 1 mps 724 mmHg 49%
12:00 +17°C° 0 mm 2 mps 723 mmHg 46%
13:00 +18°C° 0 mm 2 mps 722 mmHg 43%
14:00 +20°C° 0 mm 2 mps 721 mmHg 41%
15:00 +19°C° 0 mm 2 mps 721 mmHg 43%
16:00 +19°C° 0 mm 2 mps 720 mmHg 45%
17:00 +18°C° 0 mm 2 mps 720 mmHg 47%
18:00 +16°C° 0 mm 2 mps 720 mmHg 53%
19:00 +14°C° 0 mm 2 mps 720 mmHg 59%
20:00 +12°C° 0 mm 1 mps 720 mmHg 66%
21:00 +12°C° 0 mm 1 mps 720 mmHg 68%
22:00 +11°C° 0 mm 1 mps 720 mmHg 70%
23:00 +11°C° 0 mm 1 mps 720 mmHg 72%

15 July, Wednesday

Time Temperature Precipitation Wind Pressure Humidity
00:00 +10°C° 0 mm 1 mps 720 mmHg 73%
01:00 +10°C° 0 mm 1 mps 720 mmHg 74%
02:00 +10°C° 0 mm 1 mps 719 mmHg 75%
03:00 +9°C° 0 mm 1 mps 719 mmHg 76%
04:00 +9°C° 0 mm 1 mps 719 mmHg 78%
05:00 +8°C° 0 mm 0 mps 718 mmHg 79%
06:00 +8°C° 0 mm 0 mps 719 mmHg 77%
07:00 +8°C° 0 mm 0 mps 719 mmHg 75%
08:00 +9°C° 0 mm 0 mps 720 mmHg 73%
09:00 +11°C° 0 mm 0 mps 720 mmHg 64%
10:00 +15°C° 0 mm 1 mps 720 mmHg 55%
11:00 +19°C° 0 mm 1 mps 720 mmHg 46%
12:00 +20°C° 0 mm 1 mps 719 mmHg 44%
13:00 +21°C° 0 mm 1 mps 718 mmHg 42%
14:00 +21°C° 0 mm 2 mps 718 mmHg 40%
15:00 +21°C° 0 mm 1 mps 718 mmHg 43%
16:00 +20°C° 0 mm 1 mps 718 mmHg 45%
17:00 +20°C° 0 mm 1 mps 718 mmHg 48%
18:00 +18°C° 0 mm 1 mps 718 mmHg 53%
19:00 +15°C° 0 mm 1 mps 719 mmHg 58%
20:00 +13°C° 0 mm 1 mps 719 mmHg 63%
21:00 +13°C° 0 mm 1 mps 719 mmHg 65%
22:00 +12°C° 0 mm 1 mps 719 mmHg 66%
23:00 +12°C° 0 mm 1 mps 719 mmHg 67%
Show more